Regional Weather Roundup
Issued by NWS

Home | Current Version | Previous Version | Text Only | Print | Product List | Glossary Off
Versions: 1 2 3 4 5 6 7 8 9 10 11 12 13 14 15 16 17 18 19 20 21 22 23 24 25 26 27 28 29 30 31 32 33 34 35 36 37 38 39 40 41 42 43 44 45 46 47 48 49 50

000
ASUS43 KFSD 160810
RWRSD

WEATHER ROUNDUP FOR SOUTH DAKOTA
NATIONAL WEATHER SERVICE SIOUX FALLS SD
300 AM CDT WED APR 16 2014

NOTE: "FAIR" INDICATES FEW OR NO CLOUDS BELOW 12,000 FEET WITH NO
SIGNIFICANT WEATHER AND/OR OBSTRUCTIONS TO VISIBILITY.


SDZ001>005-009-010-012>017-160900-
NORTHWEST AND NORTH CENTRAL SOUTH DAKOTA

CITY           SKY/WX    TMP DP  RH WIND       PRES   REMARKS
BUFFALO          N/A     38  25  59 N7        29.59R
MOBRIDGE       CLOUDY    34  20  56 E24G32    29.65R WCI  21
$$

SDZ012>016-024>037-041>051-057-063-072>074-160900-
SOUTHWEST AND SOUTH CENTRAL SOUTH DAKOTA

CITY           SKY/WX    TMP DP  RH WIND       PRES   REMARKS
RAPID CTY ARPT CLOUDY    40  36  86 NW20      29.61R
PIERRE         CLOUDY    39  26  59 NE23G29   29.54R
CUSTER         CLOUDY    35  32  88 N6        29.60R
ELLSWORTH AFB  CLOUDY    40  37  91 NW16      29.61S
PHILIP         CLOUDY    41  28  60 N18       29.58R
PINE RIDGE     CLOUDY    43  37  79 N8        29.58R
SPEARFISH      LGT RAIN  37  36  93 W12       29.66S
WINNER         CLOUDY    56  28  34 S14       29.47F
$$

SDZ004>011-016>023-039-040-160900-
NORTHEAST SOUTH DAKOTA

CITY           SKY/WX    TMP DP  RH WIND       PRES   REMARKS
ABERDEEN       CLOUDY    32  20  61 E21G29    29.73F WCI  20
WATERTOWN      CLOUDY    31  21  66 E16G26    29.73S WCI  20
SISSETON         N/A     32  15  49 SE24G31   29.83F WCI  19
$$

SDZ017-020-022-023-036>040-048>070-160900-
SOUTHEAST SOUTH DAKOTA

CITY           SKY/WX    TMP DP  RH WIND       PRES   REMARKS
SIOUX FALLS    CLOUDY    40  28  62 SE13      29.67F
HURON          CLOUDY    40  27  59 E15G28    29.60S
CHAMBERLAIN      N/A     46  30  53 SE13      29.49F
MITCHELL       CLOUDY    45  29  53 SE16G23   29.56F
YANKTON        CLOUDY    45  28  53 SE9       29.63F
$$

ABBREVIATIONS USED IN REMARKS
   TC - TEMPERATURE IN CELSIUS
  WCI - WIND CHILL INDEX
   HX - HEAT INDEX
  VSB - VISIBILITY




USA.gov is the U.S. government's official web portal to all federal, state and local government web resources and services.